Location: Dob?e?
(49.9411°N, 15.1496°E)
Time: 08:11:22
(UTC+00:00)

STARLINK-1256 - Pass Details

Date: 07 June 2020
Orbit: 549 x 550 km, 53.0° (Epoch: 15 July)

Event Time Altitude Azimuth Distance (km) Brightness Sun altitude
Exits shadow 00:19:22 15° 251° (WSW) 1,528 5.5 -15.1°
Maximum altitude 00:22:47 85° 339° (NNW) 548 3.6 -14.9°
Drops below altitude 10° 00:26:52 10° 69° (ENE) 1,800 6.8 -14.7°
Enters shadow 01:25:57 -65° 261° (W) 12,128 10.3 -10.3°
